This is the latest recevied weather packets stored in our database for station/object IK2RLN-10. If no packets are shown the sender has not sent any weather packets the latest 10 day(s).
| Time | Temp. | Humidity | Pressure | Rain* | Wind** | Luminosity | Snow |
|---|---|---|---|---|---|---|---|
| 1787942451 | 27.22° C | 54% | 1016.3 hPa | - | - | - | - |
| 1787941251 | 27.22° C | 56% | 1016.5 hPa | - | - | - | - |
| 1787940050 | 27.22° C | 55% | 1016.9 hPa | - | - | - | - |
| 1787938850 | 27.22° C | 56% | 1017.5 hPa | - | - | - | - |
| 1787937650 | 27.22° C | 58% | 1018 hPa | - | - | - | - |
| 1787936495 | 27.22° C | 58% | 1017.6 hPa | - | - | - | - |
| 1787936449 | 27.22° C | 58% | 1017.6 hPa | - | - | - | - |
| 1787935249 | 27.22° C | 58% | 1017.3 hPa | - | - | - | - |
| 1787934049 | 27.22° C | 58% | 1016.7 hPa | - | - | - | - |
| 1787932849 | 27.22° C | 57% | 1017.2 hPa | - | - | - | - |
| 1787931682 | 27.22° C | 57% | 1017.1 hPa | - | - | - | - |
| 1787931649 | 27.22° C | 57% | 1017.1 hPa | - | - | - | - |
| 1787930449 | 27.78° C | 56% | 1016.5 hPa | - | - | - | - |
| 1787929284 | 28.33° C | 51% | 1016.3 hPa | - | - | - | - |
| 1787929249 | 28.33° C | 51% | 1016.3 hPa | - | - | - | - |
| 1787928048 | 28.33° C | 49% | 1017.8 hPa | - | - | - | - |
| 1787926848 | 28.33° C | 49% | 1016.5 hPa | - | - | - | - |
| 1787925679 | 28.33° C | 50% | 1016.6 hPa | - | - | - | - |
| 1787925647 | 28.33° C | 50% | 1016.6 hPa | - | - | - | - |
| 1787924480 | 28.33° C | 50% | 1016.7 hPa | - | - | - | - |
| 1787924447 | 28.33° C | 50% | 1016.7 hPa | - | - | - | - |
| 1787923247 | 28.33° C | 50% | 1016.8 hPa | - | - | - | - |
| 1787922059 | 28.33° C | 50% | 1016.9 hPa | - | - | - | - |
| 1787920890 | 28.33° C | 51% | 1017.3 hPa | - | - | - | - |
| 1787920859 | 28.33° C | 51% | 1017.3 hPa | - | - | - | - |
* Rain since midnight (hover to see other rain measurements)
** Current wind speed in m/s (hover to see current wind gust speed)